User: anonymous   Login
Location: Unspecified
(0.0000°N, 0.0000°E)
Time: 15:04:17
(UTC+00:00)
Language:

USA 224 - Orbit

View from above orbital plane
View from above orbital plane
View from above satellite
View from above satellite

Ground track
Ground track

The orbit data is extracted from the following two-line orbital elements,

1 37348U 11002A   18256.96526090 0.00011500  00000-0  11128-3 0    04
2 37348  97.9077   7.1834 0525562 182.2035 177.7963 14.79328685    08
Epoch (UTC): 13 September 2018 23:09:58
Eccentricity: 0.0525562
inclination: 97.9077°
perigee height: 263 km
apogee height: 1000 km
right ascension of ascending node: 7.1834°
argument of perigee: 182.2035°
revolutions per day: 14.79328685
mean anomaly at epoch: 177.7963°
orbit number at epoch: 0

The dashed part of the orbit path shows where the satellite is in the earth's shadow,  

DLR